Regional Weather Roundup
Issued by NWS

Home | Current Version | Previous Version | Text Only | Print | Product List | Glossary On
Versions: 1 2 3 4 5 6 7 8 9 10 11 12 13 14 15 16 17 18 19 20 21 22 23 24 25 26 27 28 29 30 31 32 33 34 35 36 37 38 39 40 41 42 43 44 45 46 47 48 49 50
000
ASUS43 KLMK 230102
RWRKY
KENTUCKY REGIONAL WEATHER ROUNDUP
NATIONAL WEATHER SERVICE LOUISVILLE KY
900 PM EDT WED OCT 22 2014

NOTE "FAIR" INDICATES FEW OR NO CLOUDS BELOW 12,000 FEET
WITH NO SIGNIFICANT WEATHER AND/OR OBSTRUCTIONS TO VISIBILITY.

KYZ001>023-026-027-061>063-070>075-230200-
WESTERN AND SOUTH CENTRAL KENTUCKY

CITY           SKY/WX    TMP DP  RH WIND       PRES   REMARKS
PADUCAH        CLEAR     50  42  74 E3        30.22R
HENDERSON      CLEAR    N/A N/A N/A CALM      30.23F
OWENSBORO      CLEAR     54  43  66 NE5       30.24R
HOPKINSVILLE   CLEAR     51  41  69 N3        30.22S
BOWLING GREEN  CLEAR     51  42  71 CALM      30.23R
GLASGOW        NOT AVBL
$$

KYZ024-025-028>034-038-045-046-053-230200-
NORTH CENTRAL KENTUCKY

CITY           SKY/WX    TMP DP  RH WIND       PRES   REMARKS
LOUISVILLE/SDF CLEAR     53  41  63 E9        30.25R
LOUISVILLE/LOU CLEAR     52  41  66 E5        30.26S
FORT KNOX      CLEAR     48  41  76 NE5       30.23S
$$

KYZ035>037-039>044-047>052-055>060-089>105-230200-
NORTHEAST KENTUCKY

CITY           SKY/WX    TMP DP  RH WIND       PRES   REMARKS
LEXINGTON      CLOUDY    52  42  69 NE9       30.26R
COVINGTON      MOCLDY    49  39  68 NE5       30.27R
FRANKFORT      PTCLDY    50  40  68 NE7       30.26R
$$

KYZ054-064>069-076>088-106>120-230200-
SOUTHEAST KENTUCKY

CITY           SKY/WX    TMP DP  RH WIND       PRES   REMARKS
JACKSON        CLOUDY    48  41  76 CALM      30.24S
LONDON         CLOUDY    49  41  74 CALM      30.24S
SOMERSET       CLOUDY    46  41  81 CALM      30.27R
MIDDLESBORO    NOT AVBL
MONTICELLO     CLOUDY    49  41  74 CALM      30.27S
$$




USA.gov is the U.S. government's official web portal to all federal, state and local government web resources and services.